RH
64 65 66 68 69 71 72 73 75 75 75 75 75 77 78 84 79 20 9 20 25 63 59 12 9 8 8 9 9 9 14 18 10 11 22 23 28 26 25 31 30 31 32 32 30
65 65 66 68 69 69 71 73 76 76 74 74 76 77 82 84 29 10 31 52 60 61 15 10 9 8 9 9 7 11 16 13 14 15 22 22 26 29 29 30 32 31 28 27 27
67 66 67 67 68 68 70 72 76 75 75 75 75 78 83 65 25 8 44 54 55 41 12 9 9 8 10 9 8 10 15 13 13 15 17 21 22 22 28 34 31 34 29 26 26
67 67 67 67 67 68 70 72 73 74 74 75 75 76 80 31 18 9 45 46 48 16 9 10 10 10 10 10 9 11 13 12 21 23 23 23 24 30 29 31 26 24 22 23 25
68 68 67 66 67 68 70 72 72 73 74 74 75 76 45 20 10 9 38 36 9 8 9 9 10 9 10 9 10 11 16 17 22 23 27 26 28 30 28 23 21 21 22 23 22
72 69 68 66 67 70 70 73 74 74 75 75 75 83 35 17 8 7 7 6 6 7 8 9 9 8 9 10 11 15 17 20 22 26 28 31 28 25 29 23 22 21 21 22 23
70 74 70 68 69 71 72 75 78 76 76 78 76 39 24 12 6 7 7 6 6 8 9 10 10 10 10 13 14 18 23 25 26 24 27 25 35 34 25 23 24 23 23 24 23
67 72 78 76 78 78 78 79 80 79 80 79 76 29 23 8 7 7 6 7 7 7 10 11 11 11 13 14 17 19 22 26 23 24 23 23 40 32 24 22 24 25 26 28 28
70 74 78 80 80 80 79 79 83 80 77 67 38 28 14 19 8 6 7 8 7 8 12 11 12 12 16 19 20 18 20 19 24 18 20 23 34 31 26 24 25 25 25 28 32
74 74 78 81 80 80 78 84 70 69 49 20 15 20 12 8 7 7 7 8 9 10 13 13 12 15 16 16 19 20 14 20 22 21 18 21 31 32 25 24 27 24 24 26 30
75 74 78 80 80 77 66 28 23 25 19 14 10 10 10 7 7 8 8 9 9 12 13 13 13 17 16 14 11 13 13 17 18 17 20 25 29 28 25 24 24 22 25 30 34
79 76 79 81 79 77 62 32 46 50 37 12 10 10 12 10 9 8 8 11 14 14 11 13 15 11 11 12 13 13 15 21 25 25 22 23 26 26 25 23 22 23 24 29 32
83 81 78 83 79 66 47 47 38 43 44 19 10 11 11 11 10 9 9 11 13 12 12 12 10 10 11 13 15 15 17 25 25 23 18 21 26 26 23 25 28 27 27 28 27
78 85 85 84 66 45 52 40 43 54 39 20 20 11 9 10 11 7 8 10 12 13 11 10 14 12 12 14 13 19 14 20 21 21 23 19 27 26 26 28 28 28 29 28 26
78 82 87 81 52 46 50 40 45 58 98 15 16 7 10 11 9 11 9 12 13 12 14 17 17 13 14 12 12 17 15 17 21 19 23 22 26 19 22 26 26 27 27 27 26
78 79 84 53 50 40 42 48 53 64 90 22 16 14 13 11 9 9 12 12 10 15 14 14 10 11 11 11 12 16 18 19 18 18 37 20 21 25 25 28 24 25 26 27 27
75 80 74 54 48 44 52 53 65 100 19 19 17 12 13 13 10 12 14 18 16 20 21 17 15 16 16 16 16 16 21 31 34 38 41 15 18 32 22 22 23 28 28 29 29
73 79 61 49 43 51 55 53 100 42 20 14 13 14 14 12 11 13 15 16 12 12 15 19 26 19 16 18 19 17 20 27 34 27 21 19 30 24 19 21 20 25 28 29 30
75 57 60 57 56 52 54 100 91 28 9 16 14 18 16 13 11 12 16 15 12 11 18 19 21 15 16 15 16 20 24 17 27 28 26 24 37 32 24 23 22 28 29 31 30
49 60 52 53 60 54 65 89 39 19 21 15 20 17 20 16 17 14 16 15 14 12 13 16 29 18 19 18 16 22 16 36 36 78 35 20 24 35 37 32 28 30 31 31 27
60 80 64 56 61 46 99 66 44 19 23 30 17 19 17 19 17 18 15 12 14 13 14 16 25 26 22 24 24 26 29 31 33 32 36 32 30 23 34 32 33 31 28 27 25
98 99 66 58 72 45 81 42 41 25 22 35 33 18 21 18 19 18 16 15 14 16 20 18 24 34 27 16 14 18 23 29 89 88 47 69 63 20 29 29 29 28 26 23 22
96 98 66 59 99 95 49 42 35 34 25 30 37 26 21 22 27 20 18 17 18 19 22 21 31 42 30 25 19 24 20 20 29 44 90 80 55 23 26 27 26 26 23 21 20
97 100 80 80 51 56 54 46 47 34 35 23 32 29 27 27 23 28 21 30 23 19 50 33 22 29 32 24 21 27 22 21 25 50 30 34 24 26 27 27 25 24 20 18 20
92 88 97 99 90 59 43 38 37 40 30 26 31 31 30 66 31 30 21 34 30 41 30 28 34 25 18 14 14 17 18 21 22 27 28 20 15 19 24 24 23 21 17 17 20
98 94 75 58 62 56 58 48 35 29 31 32 32 23 28 33 30 38 25 32 31 29 31 28 36 26 70 20 16 17 16 15 18 17 16 11 11 10 18 18 20 18 16 17 20
68 77 91 61 59 56 67 53 40 31 27 22 24 28 25 28 30 31 32 26 22 31 34 36 50 42 46 23 19 36 21 16 16 15 14 16 11 10 17 19 20 18 16 17 19
Wind_Speed
13 14 14 14 14 15 15 16 16 16 16 15 14 14 14 15 19 10 11 7 9 12 10 13 11 11 11 15 12 4 9 15 15 12 17 14 15 13 16 19 20 14 18 12 8
13 14 15 15 15 15 15 16 16 16 16 16 15 15 14 13 12 9 9 6 8 8 12 10 11 11 13 13 8 11 13 25 8 12 19 14 18 18 17 20 21 19 15 14 13
13 14 15 16 15 16 16 16 17 16 16 16 16 16 14 15 11 5 7 3 7 10 13 9 9 11 16 10 13 16 13 10 12 10 16 16 14 21 17 17 15 14 15 14 14
12 13 16 17 17 16 16 16 16 17 16 16 17 17 18 12 2 10 4 4 7 11 8 9 13 14 15 15 10 8 7 8 16 19 15 11 20 18 20 14 11 12 12 14 15
10 12 15 17 18 18 17 17 17 17 17 16 16 16 12 9 3 12 5 9 10 7 10 9 12 14 15 15 13 12 8 19 19 16 20 16 12 13 16 12 12 12 13 14 14
12 12 13 17 18 19 19 17 17 18 17 16 16 16 11 11 6 3 2 4 6 8 6 9 10 9 13 11 12 14 14 14 15 20 22 22 15 8 9 10 11 12 14 14 15
12 12 14 16 19 19 20 19 17 17 17 16 14 9 10 3 1 2 4 4 1 5 6 2 7 9 3 6 17 21 23 19 16 19 16 27 14 13 10 10 11 12 13 14 14
14 12 13 15 18 19 20 20 19 19 16 14 10 10 9 2 5 6 3 7 5 5 5 2 8 13 11 14 17 19 20 17 17 20 12 7 10 9 6 10 12 11 11 11 14
13 14 14 16 18 20 22 22 21 15 8 7 8 10 7 8 10 3 4 3 5 6 5 3 8 8 9 19 15 16 17 16 13 15 14 12 15 11 6 8 10 9 10 10 11
13 15 15 16 19 21 24 23 6 5 8 9 9 7 8 10 6 3 4 5 8 10 9 10 9 10 15 17 16 16 19 20 14 13 11 8 15 12 11 11 9 8 8 9 10
13 16 15 17 20 24 17 6 7 8 12 9 2 7 3 5 6 9 6 9 9 13 13 15 12 16 21 21 17 17 15 14 17 9 12 13 16 15 12 11 10 10 8 8 10
14 15 16 18 21 23 11 5 7 7 7 19 9 9 3 3 9 9 9 11 13 15 16 13 16 18 18 19 11 19 13 17 10 5 7 15 14 13 10 9 7 8 9 11 10
17 17 16 19 23 12 5 6 7 5 8 9 16 13 11 10 11 14 14 12 15 16 13 14 9 7 13 10 14 13 19 16 13 13 7 12 11 14 13 12 8 6 6 8 10
17 17 15 20 12 7 2 9 7 3 7 13 11 10 14 10 9 8 13 9 8 14 16 13 6 10 13 16 14 11 12 17 16 17 10 17 6 18 17 14 13 12 12 11 10
14 16 15 10 10 5 7 9 5 4 4 15 14 10 15 14 13 14 10 8 13 11 8 5 10 14 16 16 15 9 5 10 13 17 10 15 9 11 19 17 16 14 13 12 10
15 15 16 10 8 6 8 11 4 4 10 10 10 14 19 20 11 16 13 10 9 10 12 7 10 12 14 8 9 11 13 10 11 11 8 14 14 12 18 17 17 16 14 13 12
17 17 13 11 8 7 8 5 5 6 3 10 10 18 21 15 15 15 18 17 11 17 14 9 11 4 7 14 8 16 16 8 8 9 11 14 14 12 8 14 18 19 17 14 12
20 21 10 9 9 9 6 7 9 6 13 2 7 15 20 19 17 18 19 19 19 16 15 13 9 14 15 15 12 19 18 6 11 13 12 8 7 6 8 10 16 18 17 15 14
24 7 7 7 4 5 9 9 6 9 12 7 11 17 16 16 11 19 22 21 23 20 10 14 8 13 15 10 7 17 15 6 4 3 5 9 3 1 9 14 19 20 18 17 15
8 9 11 3 5 7 10 13 10 3 10 9 13 16 18 20 12 17 18 20 20 16 6 8 12 14 8 8 11 9 10 6 5 3 6 9 15 8 19 19 20 21 19 17 15
8 5 4 4 6 10 11 13 15 4 7 10 17 12 12 16 18 21 13 7 21 20 8 9 7 14 13 17 17 8 11 6 7 8 6 5 5 8 22 22 22 20 19 18 17
4 4 3 5 9 8 12 17 9 8 8 9 9 9 13 15 18 18 20 14 16 16 18 13 8 15 20 12 15 19 14 15 5 4 4 4 2 1 16 21 21 20 18 17 17
3 4 3 6 5 7 11 18 19 12 13 8 9 11 9 10 9 17 15 3 14 19 18 12 9 13 15 6 10 14 21 18 14 5 7 4 3 6 15 20 20 19 18 17 17
3 4 4 5 9 11 16 16 17 12 18 11 8 4 10 11 12 10 13 5 10 17 1 14 11 16 12 7 12 24 21 18 19 10 9 10 8 11 15 21 21 20 19 19 17
2 4 3 4 8 13 14 9 19 20 14 12 14 14 13 6 13 11 16 8 9 9 9 12 16 17 16 9 11 19 25 24 23 21 15 12 15 16 18 22 22 20 20 20 19
3 4 5 12 12 14 14 15 14 16 17 17 15 16 10 11 12 11 13 11 11 14 16 14 12 15 10 8 13 13 22 24 26 23 23 14 9 13 17 18 20 21 22 21 20
2 3 3 7 9 11 10 16 15 15 8 16 13 16 15 9 1 9 12 8 6 15 18 17 10 11 10 13 11 13 17 23 21 24 23 19 13 10 18 20 22 22 23 21 21
Wind_Direction
1 356 355 352 349 346 341 340 337 335 331 327 326 325 323 321 303 232 244 42 348 328 307 263 246 237 223 238 244 228 181 267 263 193 119 130 103 88 89 92 76 81 81 88 88
358 356 353 351 349 345 340 337 334 331 328 326 324 321 317 319 278 250 80 30 321 304 270 245 223 202 213 224 214 215 229 196 7 69 128 139 129 126 115 98 91 91 89 90 84
355 353 351 347 346 343 339 335 330 328 325 325 322 319 314 310 257 130 75 338 304 281 267 273 285 236 228 209 215 217 232 134 102 73 102 121 134 99 100 79 68 89 92 88 92
348 348 348 344 340 338 335 333 329 323 323 322 321 318 314 273 302 88 109 274 272 282 267 242 230 217 229 201 172 178 337 136 112 117 101 82 76 69 75 85 85 79 81 90 80
327 338 342 341 338 335 330 327 325 321 317 315 314 315 297 221 235 121 206 211 241 242 257 223 231 221 223 203 175 219 114 111 136 117 117 126 92 90 89 98 102 94 82 73 75
310 323 330 334 334 332 328 322 318 315 311 307 307 310 244 252 75 162 265 233 256 233 229 236 232 249 265 149 194 132 137 114 120 112 119 123 128 114 100 105 90 87 83 76 69
321 313 318 327 328 327 325 316 309 306 302 296 294 284 263 305 233 235 170 262 281 278 224 277 290 228 129 100 108 135 130 124 136 135 136 126 88 105 121 118 103 92 82 73 67
327 326 319 321 321 319 317 312 305 300 293 281 275 266 271 111 313 225 198 184 201 202 268 243 244 248 189 126 146 165 152 150 157 154 176 279 117 120 143 138 116 108 93 81 68
323 323 319 320 318 316 314 307 297 287 251 237 242 232 253 124 214 148 237 211 174 176 177 208 230 203 135 174 173 185 176 171 155 194 157 217 133 139 152 131 120 123 116 105 89
319 323 322 319 318 316 314 295 300 257 222 212 256 252 222 215 146 185 163 214 185 171 167 197 201 187 192 193 190 186 205 150 158 171 198 157 123 147 162 150 131 128 115 103 91
327 325 325 321 318 315 312 209 198 194 206 220 213 256 130 162 185 214 172 184 203 192 191 198 206 200 198 203 203 187 220 153 117 160 146 138 145 151 167 156 163 145 127 103 94
331 326 327 322 317 312 287 286 32 349 273 228 238 254 270 297 202 190 185 196 190 200 203 185 227 202 209 210 256 199 186 124 114 159 226 153 153 158 173 168 153 138 137 133 126
346 328 329 320 314 295 26 26 329 307 258 194 220 221 193 210 222 181 198 215 199 209 203 205 192 143 199 191 231 198 186 159 164 165 189 164 160 169 179 160 150 141 122 123 125
344 336 330 323 290 337 151 355 348 311 261 169 196 214 198 215 223 170 212 205 210 207 193 226 113 195 186 201 211 191 189 164 151 177 182 208 230 186 176 183 184 161 162 146 136
332 340 329 313 306 283 14 341 327 242 249 150 148 129 174 201 132 194 189 216 196 180 189 149 185 193 202 203 204 160 122 167 181 209 187 193 246 208 170 192 186 173 161 155 144
327 325 333 275 260 294 327 314 241 220 237 170 157 188 179 206 213 145 186 236 212 167 215 141 171 194 206 195 195 136 156 181 201 228 225 226 211 205 185 201 184 173 167 160 152
329 320 305 300 283 337 315 245 202 214 159 170 183 179 189 182 191 181 184 189 174 180 168 163 167 122 150 157 173 179 164 173 204 210 236 227 205 222 175 184 187 174 173 166 160
322 307 273 264 289 307 270 216 217 186 216 143 173 184 197 178 197 197 192 193 217 198 164 173 178 174 184 187 182 193 192 191 211 210 223 129 242 220 150 168 171 166 171 168 172
310 300 267 247 242 244 239 208 204 242 206 180 179 188 196 187 204 201 206 209 206 209 176 201 158 169 178 185 206 193 208 313 314 264 278 177 147 155 157 171 162 168 171 175 181
304 301 264 186 209 244 230 226 226 298 305 219 191 193 193 191 203 197 198 216 197 214 173 181 141 167 161 223 209 255 186 200 231 224 225 221 193 210 180 176 168 172 176 176 181
279 267 112 170 206 223 221 227 242 219 278 250 228 204 220 195 203 199 200 194 202 195 183 216 162 181 164 205 187 180 211 210 253 247 262 208 219 352 178 180 175 175 178 178 176
341 248 126 186 208 215 225 230 268 257 234 258 285 240 226 204 198 207 227 188 224 182 197 197 205 177 198 198 218 198 217 192 174 235 242 320 350 38 168 177 179 178 179 175 175
291 289 205 216 234 228 230 239 249 241 239 216 232 229 222 221 207 228 212 242 196 186 197 156 173 171 174 193 227 234 204 210 199 175 221 204 223 176 163 175 181 180 176 173 176
297 275 235 222 256 255 217 235 230 222 264 243 260 235 214 221 213 213 209 141 194 209 287 171 214 201 191 201 187 206 212 208 209 213 220 216 154 175 178 177 179 180 176 174 178
219 261 32 211 235 246 251 232 227 227 224 232 238 235 212 195 218 218 211 134 196 208 211 204 233 212 230 266 193 200 205 203 210 215 219 228 234 175 187 182 181 177 176 176 180
269 323 327 282 271 235 242 246 240 228 228 222 239 226 221 233 208 216 206 179 182 189 209 200 228 228 226 231 238 214 205 211 212 215 231 237 239 158 179 181 179 181 181 182 182
199 218 273 282 276 247 230 232 240 236 240 240 236 240 228 236 13 354 314 213 225 185 199 198 217 219 208 219 216 226 218 207 214 219 222 223 216 156 173 189 185 185 185 187 183